[[{"header":{"parameterUnit":"m.s-1","parameterCategory":1,"la1":30.2991,"la2":30.254,"lo1":-89.0895,"lo2":-89.0444,"dy":0.0017,"dx":0.0017,"nx":28,"ny":28,"refTime":"2024-05-03T09:00:00:Z","depth":0,"parameterNumber":2,"parameterNumberName":"U-component_of_WINDS"},"data":[0,0,0,0,0,0,0,0,0,0,0,0,0,0,0,0,0,0,0,0,0,0,0,0,0,0,0,0,0,0,0,0,0,0,0,0,0,0,0,0,0,0,0,0,0,0,0,0,0,0,0,0,0,0,0,0,0,0,-1.1047,-1.1047,0,-1.1067,-1.1067,-1.1067,-1.1052,-1.1052,-1.1051,-1.105,-1.1073,-1.1074,-1.1076,0,0,0,0,0,0,0,0,0,0,0,0,0,-1.1,-1.1001,-1.1047,-1.1047,-1.1048,-1.1067,-1.1067,-1.1067,-1.1052,-1.1052,-1.1051,-1.105,-1.1073,-1.1074,-1.1076,0,0,0,0,0,0,0,0,0,0,0,0,0,-1.102,-1.1001,-1.1047,-1.1042,-1.1042,-1.1067,-1.1067,-1.1068,-1.1053,-1.1052,-1.1051,-1.105,-1.1072,-1.1074,-1.1076,-1.1107,0,0,-1.1082,-1.1082,0,0,0,0,0,0,0,0,-1.1019,-1.1022,-1.1043,-1.1043,-1.1043,-1.1056,-1.1059,-1.1081,-1.1053,-1.1049,-1.105,-1.1049,-1.1069,-1.1071,-1.1077,-1.1108,-1.1109,-1.1082,-1.1083,-1.1084,-1.1084,0,0,0,0,0,0,0,-1.1018,-1.1021,-1.1055,-1.1043,-1.1043,-1.1041,-1.1042,-1.1063,-1.1064,-1.1049,-1.1048,-1.105,-1.1068,-1.1075,-1.1077,-1.1109,-1.1082,-1.1083,-1.1084,-1.1085,-1.117,-1.1171,0,0,0,0,0,0,-1.1016,-1.102,-1.1054,-1.1056,-1.1028,-1.1042,-1.1044,-1.1053,-1.1064,-1.1064,-1.1051,-1.105,-1.1072,-1.1075,-1.1078,-1.1116,-1.1084,-1.1085,-1.1086,-1.1168,-1.117,-1.1171,0,0,0,0,0,0,-1.1016,-1.102,-1.1054,-1.1038,-1.1042,-1.1044,-1.1054,-1.1054,-1.106,-1.1065,-1.1066,-1.1057,-1.1072,-1.1075,-1.11,-1.1116,-1.1086,-1.1088,-1.1167,-1.1169,-1.117,-1.1191,0,0,0,0,0,0,-1.1014,-1.1019,-1.103,-1.1038,-1.1043,-1.1075,-1.1055,-1.1055,-1.1063,-1.1061,-1.1071,-1.1072,-1.1071,-1.1097,-1.1102,-1.1118,-1.1089,-1.1166,-1.1168,-1.117,-1.1189,-1.1194,-1.1197,0,0,0,0,0,-1.1013,-1.1036,-1.1031,-1.1035,-1.1056,-1.1075,-1.1078,-1.1076,-1.1064,-1.1076,-1.108,-1.1072,-1.1114,-1.11,-1.1105,-1.1122,-1.1165,-1.1167,-1.117,-1.1187,-1.1193,-1.1197,0,0,0,0,0,0,-1.103,-1.1036,-1.1031,-1.1057,-1.1066,-1.1073,-1.1087,-1.1081,-1.1094,-1.1092,-1.1089,-1.1092,-1.1118,-1.1123,-1.1107,-1.1154,-1.1138,-1.1141,-1.1149,-1.1155,-1.1159,-1.1157,-1.1091,0,0,0,0,0,-1.1037,-1.1051,-1.1056,-1.1079,-1.1083,-1.1085,-1.1093,-1.109,-1.11,-1.1104,-1.1109,-1.1119,-1.1135,-1.1145,-1.116,-1.119,-1.1193,-1.1205,-1.1209,-1.1212,-1.1215,-1.1233,-1.1239,-1.118,-1.118,-1.1179,0,0,-1.1051,-1.1057,-1.1066,-1.1083,-1.1089,-1.1105,-1.1088,-1.1105,-1.1117,-1.1106,-1.113,-1.1135,-1.1146,-1.1174,-1.1187,-1.1179,-1.1232,-1.1215,-1.1218,-1.1219,-1.1236,-1.1242,-1.1247,-1.1181,-1.1181,-1.1181,0,0,-1.1085,-1.109,-1.111,-1.1117,-1.1127,-1.1128,-1.1133,-1.1141,-1.1144,-1.1167,-1.116,-1.1175,-1.1202,-1.1211,-1.1218,-1.1258,-1.1252,-1.1263,-1.1284,-1.1302,-1.1306,-1.131,-1.1325,-1.1331,-1.1266,-1.1267,-1.1267,0,-1.1102,-1.1125,-1.1121,-1.1139,-1.1148,-1.1138,-1.1159,-1.1166,-1.1181,-1.1188,-1.1178,-1.1213,-1.122,-1.125,-1.126,-1.1267,-1.1273,-1.1262,-1.1306,-1.131,-1.1314,-1.1328,-1.1333,-1.1268,-1.1268,-1.1268,-1.1267,0,-1.1145,-1.1161,-1.1176,-1.119,-1.12,-1.122,-1.122,-1.1231,-1.1229,-1.1231,-1.1257,-1.1265,-1.1281,-1.1289,-1.1286,-1.132,-1.1315,-1.1306,-1.1289,-1.1321,-1.1334,-1.1339,-1.127,-1.1269,-1.1269,-1.1269,0,0,-1.119,-1.1202,-1.1208,-1.1214,-1.1226,-1.1238,-1.1259,-1.1274,-1.1284,-1.1295,-1.1313,-1.1336,-1.1328,-1.1338,-1.1336,-1.1352,-1.1384,-1.1341,-1.1342,-1.1349,-1.1423,-1.1429,-1.1435,-1.138,-1.1381,-1.1382,-1.1422,0,-1.1225,-1.1258,-1.1256,-1.1288,-1.1304,-1.1296,-1.1314,-1.1323,-1.1327,-1.1342,-1.1346,-1.1363,-1.1351,-1.1357,-1.1371,-1.1377,-1.1399,-1.1374,-1.1397,-1.1398,-1.1394,-1.1442,-1.1449,-1.1486,-1.1427,-1.1428,-1.1428,0,-1.127,-1.1282,-1.1315,-1.1325,-1.1331,-1.1347,-1.1362,-1.1376,-1.1387,-1.1389,-1.14,-1.1396,-1.1418,-1.1402,-1.1433,-1.1416,-1.1426,-1.143,-1.1432,-1.1434,-1.1415,-1.1445,-1.1497,-1.1503,-1.1436,-1.1436,-1.1435,0,-1.13,-1.1324,-1.1347,-1.1353,-1.1365,-1.1377,-1.1383,-1.1393,-1.1403,-1.1417,-1.1424,-1.144,-1.1449,-1.1463,-1.1465,-1.1452,-1.1496,-1.148,-1.1499,-1.1499,-1.1508,-1.1507,-1.1563,-1.1515,-1.1515,-1.1514,-1.1514,0,-1.1339,-1.136,-1.1361,-1.1375,-1.1399,-1.1398,-1.1422,-1.1427,-1.1436,-1.1453,-1.1448,-1.1463,-1.1465,-1.1482,-1.1483,-1.1509,-1.1514,-1.1516,-1.1517,-1.1517,-1.1516,-1.1523,-1.152,-1.1516,-1.1516,-1.1515,-1.1515,0,-1.1376,-1.1378,-1.1402,-1.1412,-1.1415,-1.1432,-1.1441,-1.1455,-1.1459,-1.148,-1.1484,-1.149,-1.151,-1.1513,-1.1536,-1.1538,-1.1569,-1.1566,-1.1565,-1.1564,-1.1584,-1.1582,-1.1645,-1.1653,-1.16,-1.16,-1.1601,0,-1.1401,-1.1416,-1.1428,-1.1438,-1.1444,-1.146,-1.1471,-1.1471,-1.1482,-1.1497,-1.151,-1.1529,-1.1544,-1.1576,-1.1583,-1.1601,-1.1599,-1.162,-1.1602,-1.1602,-1.16,-1.1599,-1.1601,-1.1623,-1.1624,-1.1625,-1.1625,0,-1.1445,-1.1445,-1.1459,-1.1475,-1.1487,-1.1499,-1.1511,-1.152,-1.1522,-1.1535,-1.1554,-1.1566,-1.159,-1.1609,-1.1627,-1.1635,-1.1631,-1.1631,-1.1636,-1.1636,-1.1635,-1.1636,-1.1574,-1.1629,-1.1629,-1.1628,-1.1628,-1.1628,-1.1477,-1.1491,-1.1501,-1.1518,-1.1527,-1.1538,-1.1552,-1.1557,-1.1573,-1.1592,-1.1591,-1.1613,-1.1626,-1.165,-1.1659,-1.1677,-1.167,-1.1678,-1.168,-1.1682,-1.1684,-1.1632,-1.168,-1.168,-1.168,-1.168,-1.168,0,-1.1521,-1.1528,-1.1543,-1.1559,-1.1573,-1.1567,-1.158,-1.1592,-1.1611,-1.1622,-1.1637,-1.1661,-1.168,-1.1689,-1.1708,-1.1721,-1.172,-1.1726,-1.1725,-1.1727,-1.1689,-1.1682,-1.1727,-1.1727,-1.1727,-1.1727,-1.1727,-1.1727,-1.1546,-1.157,-1.1572,-1.16,-1.1607,-1.1627,-1.1635,-1.1646,-1.1656,-1.1681,-1.1697,-1.1702,-1.1714,-1.1734,-1.1752,-1.1754,-1.1762,-1.1769,-1.177,-1.1734,-1.173,-1.1725,-1.1719,-1.177,-1.177,-1.1807,-1.1808,-1.1808]},{"header":{"parameterUnit":"m.s-1","parameterCategory":1,"la1":30.2991,"la2":30.254,"lo1":-89.0895,"lo2":-89.0444,"dy":0.0017,"dx":0.0017,"nx":28,"ny":28,"refTime":"2024-05-03T09:00:00:Z","depth":0,"parameterNumber":3,"parameterNumberName":"V-component_of_WINDS"},"data":[0,0,0,0,0,0,0,0,0,0,0,0,0,0,0,0,0,0,0,0,0,0,0,0,0,0,0,0,0,0,0,0,0,0,0,0,0,0,0,0,0,0,0,0,0,0,0,0,0,0,0,0,0,0,0,0,0,0,3.5867,3.5867,0,3.5828,3.5828,3.5827,3.58,3.58,3.5799,3.5799,3.5756,3.5755,3.5754,0,0,0,0,0,0,0,0,0,0,0,0,0,3.5917,3.5917,3.5868,3.5867,3.5867,3.5828,3.5828,3.5827,3.58,3.58,3.5799,3.5799,3.5757,3.5755,3.5754,0,0,0,0,0,0,0,0,0,0,0,0,0,3.5889,3.5916,3.5868,3.5848,3.5846,3.5828,3.5828,3.5827,3.58,3.58,3.5799,3.5799,3.5757,3.5756,3.5754,3.5751,0,0,3.575,3.5749,0,0,0,0,0,0,0,0,3.589,3.5887,3.5852,3.585,3.5847,3.5819,3.583,3.5802,3.58,3.5817,3.5799,3.5799,3.5777,3.5774,3.5767,3.5749,3.5748,3.575,3.5749,3.5748,3.5748,0,0,0,0,0,0,0,3.5892,3.5888,3.5852,3.5851,3.5849,3.5841,3.5837,3.5824,3.5799,3.5816,3.5814,3.581,3.5776,3.5769,3.5766,3.5747,3.575,3.5748,3.5747,3.5747,3.5727,3.5727,0,0,0,0,0,0,3.5898,3.589,3.5853,3.5851,3.5869,3.5841,3.5836,3.5828,3.5799,3.5795,3.581,3.5809,3.5771,3.5768,3.5764,3.5761,3.5748,3.5747,3.5746,3.5727,3.5727,3.5727,0,0,0,0,0,0,3.5899,3.5895,3.5855,3.587,3.5864,3.584,3.5832,3.5828,3.582,3.5795,3.579,3.5807,3.5771,3.5766,3.5755,3.5759,3.5746,3.5745,3.5726,3.5727,3.5727,3.5752,0,0,0,0,0,0,3.59,3.5895,3.5894,3.587,3.5864,3.5847,3.5832,3.5827,3.5818,3.5816,3.5791,3.5787,3.577,3.5758,3.5754,3.5756,3.5744,3.5726,3.5726,3.5727,3.5751,3.5754,3.5756,0,0,0,0,0,3.5902,3.5902,3.5894,3.589,3.5862,3.5847,3.5843,3.5825,3.5819,3.5817,3.5801,3.5788,3.5759,3.5757,3.5752,3.5754,3.5725,3.5726,3.5727,3.575,3.5753,3.5756,0,0,0,0,0,0,3.5925,3.5898,3.5889,3.5881,3.5867,3.5843,3.584,3.5829,3.5815,3.5813,3.579,3.5785,3.5777,3.5764,3.5763,3.5751,3.5741,3.5741,3.576,3.5762,3.5765,3.5768,3.5743,0,0,0,0,0,3.593,3.5921,3.5897,3.5892,3.5886,3.5864,3.5857,3.5845,3.5828,3.5822,3.5805,3.5789,3.5777,3.5769,3.5756,3.5749,3.5744,3.5749,3.5751,3.5753,3.5753,3.575,3.5752,3.573,3.573,3.573,0,0,3.5938,3.5922,3.5917,3.5896,3.5884,3.5875,3.5859,3.585,3.5843,3.582,3.5809,3.5797,3.5777,3.5769,3.5765,3.5759,3.5759,3.5754,3.5756,3.5755,3.5751,3.5754,3.5755,3.573,3.573,3.573,0,0,3.5949,3.5936,3.5931,3.5919,3.5901,3.5887,3.5886,3.5864,3.5855,3.5844,3.5827,3.5819,3.5797,3.5785,3.5776,3.5785,3.5772,3.5781,3.5793,3.5791,3.5792,3.5794,3.5798,3.5799,3.5781,3.5781,3.5781,0,3.5961,3.5947,3.5929,3.5922,3.5914,3.5894,3.5889,3.5878,3.5856,3.5851,3.5845,3.5819,3.5805,3.5794,3.5797,3.579,3.5788,3.5783,3.5794,3.5795,3.5796,3.58,3.5801,3.5782,3.5782,3.5782,3.5782,0,3.5964,3.5955,3.5953,3.5935,3.5926,3.592,3.5901,3.5894,3.5883,3.587,3.586,3.5842,3.5826,3.5823,3.5811,3.5811,3.5808,3.5798,3.5787,3.58,3.5803,3.5804,3.5784,3.5784,3.5783,3.5783,0,0,3.5987,3.596,3.596,3.5952,3.5931,3.5924,3.5917,3.5902,3.5898,3.5884,3.5878,3.5861,3.5853,3.5843,3.5829,3.5827,3.5837,3.5817,3.5817,3.5822,3.5837,3.5845,3.5847,3.5828,3.5829,3.5829,3.5839,0,3.5995,3.5983,3.5968,3.596,3.5952,3.5935,3.5929,3.5916,3.5904,3.5895,3.5882,3.5871,3.586,3.5854,3.5851,3.5836,3.5839,3.5835,3.5823,3.5822,3.5828,3.5848,3.5856,3.5867,3.584,3.584,3.584,0,3.6003,3.5992,3.5984,3.5966,3.5962,3.5957,3.5944,3.5936,3.5921,3.5912,3.5902,3.5889,3.5881,3.5871,3.5861,3.5858,3.5852,3.5845,3.5845,3.5843,3.5832,3.5848,3.587,3.5872,3.5842,3.5842,3.5842,0,3.6021,3.6004,3.5998,3.5991,3.597,3.5967,3.5958,3.5943,3.5936,3.5924,3.5919,3.5906,3.5899,3.5889,3.5873,3.5867,3.5865,3.5853,3.5858,3.5858,3.5857,3.5858,3.5879,3.5853,3.5853,3.5853,3.5853,0,3.6032,3.6028,3.6006,3.6002,3.5998,3.5981,3.5977,3.5966,3.5953,3.5947,3.593,3.5925,3.5903,3.5895,3.5882,3.5876,3.5873,3.5866,3.5863,3.5868,3.5869,3.5863,3.5862,3.5854,3.5854,3.5853,3.5853,0,3.6052,3.6037,3.6029,3.601,3.6005,3.6003,3.5987,3.5983,3.5971,3.5963,3.596,3.5941,3.5931,3.5914,3.5898,3.589,3.5887,3.588,3.5892,3.589,3.5896,3.5896,3.5915,3.5917,3.5889,3.589,3.589,0,3.606,3.6057,3.6038,3.6034,3.6026,3.6018,3.6011,3.5994,3.5988,3.5972,3.597,3.5959,3.5949,3.5934,3.5919,3.5907,3.5901,3.5909,3.5899,3.5905,3.5902,3.5903,3.5903,3.5911,3.5911,3.5912,3.5912,0,3.6076,3.6069,3.6061,3.605,3.6043,3.6034,3.6023,3.602,3.6001,3.5995,3.5986,3.5978,3.5964,3.5953,3.594,3.593,3.5918,3.5915,3.5916,3.5921,3.5928,3.5925,3.5898,3.5915,3.5914,3.5914,3.5914,3.5914,3.609,3.6087,3.6075,3.6066,3.6057,3.6049,3.6044,3.6033,3.6025,3.6012,3.6003,3.5994,3.5981,3.5962,3.5953,3.5946,3.594,3.5941,3.5941,3.5942,3.5944,3.593,3.5944,3.5944,3.5943,3.5943,3.5943,0,3.6106,3.6097,3.609,3.6077,3.6071,3.6061,3.605,3.6045,3.6038,3.6027,3.6019,3.6009,3.5999,3.5984,3.5973,3.5971,3.5965,3.5968,3.5968,3.5967,3.5949,3.595,3.5973,3.5973,3.5973,3.5973,3.5973,3.5973,3.6113,3.6109,3.6101,3.6092,3.6083,3.6076,3.607,3.6063,3.6054,3.6044,3.6036,3.6027,3.6014,3.6003,3.5994,3.599,3.5987,3.5992,3.5986,3.597,3.5968,3.5965,3.5966,3.5992,3.5992,3.6004,3.6004,3.6005]}]]